Weather History for KVWU - December, 2012

Change the Weather History Date:

Tuesday, December 18, 2012

  Actual Average (KBDE) Record (KBDE)
Temperature  
Mean Temperature 19 °F -  
Max Temperature 24 °F 18 °F 40 °F (1962)
Min Temperature 14 °F 0 °F -35 °F (1983)
Degree Days  
Heating Degree Days 46    
Moisture  
Dew Point 18 °F    
Average Humidity 92    
Maximum Humidity 100    
Minimum Humidity 86    
Precipitation  
Precipitation 0.00 in - - ()
Sea Level Pressure  
Sea Level Pressure 29.67 in    
Wind  
Wind Speed 2 mph (East)    
Max Wind Speed 5 mph    
Max Gust Speed -    
Visibility 9 miles    
Events Snow    
Averages and records for this station are not official NWS values.
T = Trace of Precipitation, MM = Missing Value Source: NWS Daily Summary

Daily Weather History Graph

Daily Weather History Graph

Search for Another Location

Airport or City:

Trip Planner

Search our weather history database for the weather conditions in past years. The results will help you decide how hot, cold, wet, or windy it might be!

Date:

Astronomy

Dec. 18, 2012 Rise Set
Actual Time 8:04 AM CST 4:25 PM CST
Civil Twilight 7:27 AM CST 5:02 PM CST
Nautical Twilight 6:47 AM CST 5:42 PM CST
Astronomical Twilight 6:09 AM CST 6:20 PM CST
Moon 11:19 AM CST (12/18) 11:20 PM CST (12/18)
Length of Visible Light 9h 34m
Length of Day
8h 21m
Waxing Crescent, 35% of the Moon is Illuminated
Dec 18
Waxing Crescent
Dec 19
First Quarter
Dec 28
Full
Jan 4
Last Quarter
Jan 11
New

Hourly Weather History & Observations

Time (CST) Temp. Windchill Dew Point Humidity Pressure Visibility Wind Dir Wind Speed Gust Speed Precip Events Conditions
12:07 AM 14.0 °F 8.2 °F 12.2 °F 93% 29.66 in 10.0 mi ESE 3.5 mph - N/A   Overcast
12:27 AM 14.0 °F 8.2 °F 12.2 °F 93% 29.66 in 10.0 mi ESE 3.5 mph - N/A   Overcast
12:47 AM 14.0 °F - 12.2 °F 93% 29.67 in 10.0 mi Calm Calm - N/A   Overcast
1:07 AM 14.0 °F - 12.2 °F 93% 29.66 in 10.0 mi Calm Calm - N/A   Overcast
1:28 AM 14.0 °F 8.2 °F 12.2 °F 93% 29.66 in 10.0 mi East 3.5 mph - N/A   Overcast
1:47 AM 15.8 °F - 12.2 °F 86% 29.66 in 10.0 mi Calm Calm - N/A   Overcast
2:07 AM 15.8 °F - 12.2 °F 86% 29.66 in 10.0 mi Calm Calm - N/A   Overcast
2:27 AM 15.8 °F 10.2 °F 12.2 °F 86% 29.66 in 10.0 mi East 3.5 mph - N/A   Overcast
2:47 AM 15.8 °F 10.2 °F 12.2 °F 86% 29.66 in 10.0 mi East 3.5 mph - N/A   Overcast
3:07 AM 15.8 °F 10.2 °F 12.2 °F 86% 29.65 in 10.0 mi East 3.5 mph - N/A   Overcast
3:27 AM 15.8 °F 8.6 °F 12.2 °F 86% 29.65 in 10.0 mi East 4.6 mph - N/A   Overcast
3:47 AM 15.8 °F 10.2 °F 12.2 °F 86% 29.65 in 10.0 mi East 3.5 mph - N/A   Overcast
4:07 AM 15.8 °F 8.6 °F 12.2 °F 86% 29.64 in 10.0 mi East 4.6 mph - N/A Snow Light Snow
4:27 AM 15.8 °F 8.6 °F 12.2 °F 86% 29.64 in 10.0 mi East 4.6 mph - N/A   Overcast
4:47 AM 15.8 °F 10.2 °F 14.0 °F 93% 29.64 in 10.0 mi East 3.5 mph - N/A Snow Light Snow
5:07 AM 15.8 °F 10.2 °F 14.0 °F 93% 29.64 in 10.0 mi East 3.5 mph - N/A Snow Light Snow
5:27 AM 15.8 °F 10.2 °F 14.0 °F 93% 29.64 in 10.0 mi ENE 3.5 mph - N/A Snow Light Snow
6:07 AM 15.8 °F 10.2 °F 15.8 °F 100% 29.65 in 7.0 mi East 3.5 mph - N/A Snow Light Snow
6:27 AM 15.8 °F - 15.8 °F 100% 29.65 in 7.0 mi Calm Calm - N/A Snow Light Snow
6:47 AM 15.8 °F 10.2 °F 15.8 °F 100% 29.65 in 7.0 mi East 3.5 mph - N/A Snow Light Snow
7:07 AM 15.8 °F 10.2 °F 15.8 °F 100% 29.65 in 10.0 mi East 3.5 mph - N/A Snow Light Snow
7:27 AM 15.8 °F - 15.8 °F 100% 29.65 in 7.0 mi Calm Calm - N/A Snow Light Snow
7:47 AM 15.8 °F 10.2 °F 15.8 °F 100% 29.65 in 7.0 mi East 3.5 mph - N/A Snow Light Snow
8:07 AM 15.8 °F 10.2 °F 15.8 °F 100% 29.65 in 7.0 mi East 3.5 mph - N/A Snow Light Snow
8:27 AM 17.6 °F 12.3 °F 15.8 °F 93% 29.65 in 7.0 mi East 3.5 mph - N/A Snow Light Snow
8:47 AM 17.6 °F - 15.8 °F 93% 29.65 in 5.0 mi Calm Calm - N/A Snow Light Snow
9:08 AM 17.6 °F - 15.8 °F 93% 29.65 in 4.0 mi Calm Calm - N/A Snow Light Snow
9:27 AM 17.6 °F - 17.6 °F 100% 29.65 in 10.0 mi Calm Calm - N/A Snow Light Snow
9:47 AM 19.4 °F 14.3 °F 17.6 °F 93% 29.66 in 3.0 mi East 3.5 mph - N/A Snow Light Snow
10:08 AM 19.4 °F 14.3 °F 17.6 °F 93% 29.66 in 10.0 mi ESE 3.5 mph - N/A   Overcast
10:27 AM 19.4 °F 12.8 °F 19.4 °F 100% 29.66 in 10.0 mi ESE 4.6 mph - N/A   Overcast
11:07 AM 21.2 °F - 19.4 °F 93% 29.66 in 10.0 mi Calm Calm - N/A   Overcast
11:27 AM 21.2 °F - 19.4 °F 93% 29.66 in 10.0 mi Calm Calm - N/A   Overcast
12:07 PM 23.0 °F - 21.2 °F 93% 29.65 in 10.0 mi Calm Calm - N/A   Overcast
12:27 PM 23.0 °F 17.0 °F 21.2 °F 93% 29.65 in 10.0 mi SE 4.6 mph - N/A Snow Light Snow
12:47 PM 23.0 °F 18.4 °F 21.2 °F 93% 29.65 in 10.0 mi SE 3.5 mph - N/A   Overcast
1:07 PM 23.0 °F - 21.2 °F 93% 29.65 in 10.0 mi Calm Calm - N/A   Overcast
1:27 PM 23.0 °F - 21.2 °F 93% 29.65 in 10.0 mi Calm Calm - N/A   Overcast
1:47 PM 23.0 °F - 21.2 °F 93% 29.65 in 10.0 mi Calm Calm - N/A   Overcast
2:07 PM 24.8 °F - 21.2 °F 86% 29.65 in 10.0 mi Calm Calm - N/A   Overcast
2:27 PM 24.8 °F - 21.2 °F 86% 29.65 in 7.0 mi Calm Calm - N/A   Overcast
2:47 PM 24.8 °F - 21.2 °F 86% 29.65 in 10.0 mi Calm Calm - N/A   Overcast
3:07 PM 24.8 °F - 21.2 °F 86% 29.66 in 10.0 mi Calm Calm - N/A   Overcast
3:27 PM 23.0 °F - 21.2 °F 93% 29.66 in 10.0 mi Calm Calm - N/A   Overcast
3:47 PM 24.8 °F - 21.2 °F 86% 29.66 in 10.0 mi Calm Calm - N/A   Overcast
4:07 PM 24.8 °F - 21.2 °F 86% 29.67 in 10.0 mi Calm Calm - N/A   Overcast
4:27 PM 24.8 °F - 21.2 °F 86% 29.67 in 10.0 mi Calm Calm - N/A   Overcast
4:47 PM 24.8 °F - 21.2 °F 86% 29.68 in 7.0 mi Calm Calm - N/A   Overcast
5:07 PM 24.8 °F - 21.2 °F 86% 29.68 in 7.0 mi Calm Calm - N/A   Overcast
5:27 PM 23.0 °F - 21.2 °F 93% 29.68 in 7.0 mi Calm Calm - N/A   Overcast
5:47 PM 23.0 °F - 21.2 °F 93% 29.69 in 10.0 mi Calm Calm - N/A   Overcast
6:07 PM 23.0 °F - 21.2 °F 93% 29.69 in 10.0 mi Calm Calm - N/A   Overcast
6:27 PM 23.0 °F - 21.2 °F 93% 29.70 in 10.0 mi Calm Calm - N/A   Overcast
6:47 PM 23.0 °F 18.4 °F 21.2 °F 93% 29.69 in 10.0 mi ESE 3.5 mph - N/A   Overcast
7:07 PM 23.0 °F - 21.2 °F 93% 29.69 in 10.0 mi Calm Calm - N/A   Overcast
7:27 PM 23.0 °F - 21.2 °F 93% 29.70 in 10.0 mi Calm Calm - N/A   Overcast
7:47 PM 23.0 °F 18.4 °F 21.2 °F 93% 29.70 in 10.0 mi ESE 3.5 mph - N/A   Overcast
8:07 PM 23.0 °F - 21.2 °F 93% 29.70 in 10.0 mi Calm Calm - N/A   Overcast
8:27 PM 23.0 °F - 21.2 °F 93% 29.70 in 10.0 mi Calm Calm - N/A   Overcast
8:47 PM 23.0 °F - 21.2 °F 93% 29.70 in 10.0 mi Calm Calm - N/A   Overcast
9:07 PM 23.0 °F - 21.2 °F 93% 29.70 in 7.0 mi Calm Calm - N/A Snow Light Snow
9:27 PM 23.0 °F - 21.2 °F 93% 29.70 in 7.0 mi Calm Calm - N/A Snow Light Snow
9:47 PM 23.0 °F - 21.2 °F 93% 29.71 in 10.0 mi Calm Calm - N/A Snow Light Snow
10:07 PM 23.0 °F - 21.2 °F 93% 29.71 in 10.0 mi Calm Calm - N/A   Overcast
10:27 PM 23.0 °F - 21.2 °F 93% 29.71 in 7.0 mi Calm Calm - N/A Snow Light Snow
10:47 PM 23.0 °F - 21.2 °F 93% 29.72 in 3.0 mi Calm Calm - N/A Snow Light Snow
11:07 PM 24.8 °F - 21.2 °F 86% 29.72 in 2.5 mi Calm Calm - N/A Snow Light Snow
11:27 PM 23.0 °F - 21.2 °F 93% 29.72 in 3.0 mi Calm Calm - N/A Snow Light Snow
11:47 PM 23.0 °F - 21.2 °F 93% 29.72 in 3.0 mi Calm Calm - N/A Snow Light Snow